Location: Sperry Observatory
(40.6664°N, 74.3236°W)
Time: 12:56:45
(UTC-04:00)

Amateur Radio Satellites - All Passes

Search period start: 30 July 2016 12:26
Search period end: 31 July 2016 12:26
Location: Sperry Observatory, 40.6664°N, 74.3236°W

Satellite Date Start Highest point End Downlink Frequencies (MHz)
Time Altitude Azimuth
AISAT 30 Jul 12:29:30 12:33:52 50° 100° (E) 12:38:12 437.250
NANOSAT C BR1 30 Jul 12:30:10 12:33:49 28° 264° (W) 12:37:32 145.865
BUGSAT 1 30 Jul 12:31:48 12:35:51 65° 259° (WSW) 12:40:01 437.445
RS-15 30 Jul 12:32:38 12:42:07 25° 17° (NNE) 12:51:39 29.354- 29.394
DUCHIFAT 1 30 Jul 12:32:41 12:36:20 28° 264° (W) 12:40:01 145.980
50 SAT 30 Jul 12:46:28 12:50:05 87° 102° (ESE) 12:53:40 437.505
SPROUT 30 Jul 12:50:07 12:54:10 37° 98° (E) 12:58:10 437.525
QB50P1 30 Jul 12:56:15 12:58:38 15° 268° (W) 13:01:01 145.935-145.965
POPSAT HIP 1 30 Jul 13:03:42 13:05:30 12° 269° (W) 13:07:19 437.405
Oscar 19 30 Jul 13:10:23 13:15:19 52° 71° (ENE) 13:20:18 437.125/150
CUBEBUG 1 30 Jul 13:12:25 13:16:39 48° 287° (WNW) 13:20:54 437.445
AIST 1 30 Jul 13:16:28 13:20:41 77° 96° (E) 13:24:58
ESTCUBE 1 30 Jul 13:19:41 13:23:32 29° 291° (WNW) 13:27:22 437.505/2401.250
AO-85 30 Jul 13:19:46 13:25:09 79° 120° (ESE) 13:30:20 145.980
Gurwin Techsat 1B 30 Jul 13:20:27 13:25:00 30° 67° (ENE) 13:29:36 435.225
VELOX 1 30 Jul 13:20:40 13:24:57 47° 288° (WNW) 13:29:13 145.980
JAS-2 30 Jul 13:30:39 13:35:50 31° 263° (W) 13:40:38 435.910
TISAT 1 30 Jul 13:32:44 13:36:18 25° 96° (E) 13:39:49 437.305
Cosmos 2504 30 Jul 13:33:04 13:37:13 14° 301° (WNW) 13:41:22 435.465 / 435.565
DX 1 30 Jul 13:53:10 13:56:58 29° 291° (WNW) 14:00:46 434.975-435.025
CUSAT 1 30 Jul 13:54:12 13:56:51 22° 78° (ENE) 14:00:02 437.405
UKube-1 30 Jul 13:59:54 14:03:43 31° 291° (WNW) 14:07:32 .
AISAT 30 Jul 14:07:12 14:09:55 16° 296° (WNW) 14:12:39 437.250
GONETS M04 30 Jul 14:17:10 14:24:17 30° 83° (E) 14:31:26
Cosmos 2499 30 Jul 14:24:19 14:30:58 25° 81° (E) 14:37:27 435.465 / 435.565
ITUPSAT 1 30 Jul 14:26:08 14:29:25 18° 93° (E) 14:32:41 437.325
SPROUT 30 Jul 14:26:45 14:29:49 19° 294° (WNW) 14:32:53 437.525
SO-50 30 Jul 14:38:42 14:40:22 12° 35° (NE) 14:42:02 436.795
AO-7 30 Jul 14:45:50 14:53:34 44° 62° (ENE) 15:01:19 29.400- 29.500
RS-15 30 Jul 14:46:12 14:58:19 56° 48° (NE) 15:10:15 29.354- 29.394
Oscar 19 30 Jul 14:51:28 14:54:56 18° 268° (W) 14:58:26 437.125/150
DANDE 30 Jul 14:51:30 14:53:52 26° 78° (ENE) 14:56:30 436.750
ITAMSAT 1 30 Jul 14:52:25 14:57:36 71° 74° (ENE) 15:02:50 435.822/435.867
Gurwin Techsat 1B 30 Jul 15:00:03 15:04:51 34° 263° (W) 15:09:41 435.225
AO-85 30 Jul 15:02:30 15:06:10 19° 318° (NW) 15:09:45 145.980
TISAT 1 30 Jul 15:08:17 15:11:52 27° 291° (WNW) 15:15:27 437.305
SWISSCUBE 30 Jul 15:16:10 15:20:55 69° 102° (ESE) 15:25:38 437.505
PHONESAT 2.4 30 Jul 15:19:27 15:21:49 20° 153° (SSE) 15:24:12 2401.200-2431.200
CUSAT 1 30 Jul 15:36:28 15:38:45 17° 264° (W) 15:41:22 437.405
BEESAT 30 Jul 15:37:06 15:41:53 81° 286° (WNW) 15:46:38 436.000
MOZHAYETS 4 30 Jul 15:46:23 15:49:14 16° 92° (E) 15:52:03
ITUPSAT 1 30 Jul 16:02:55 16:07:28 45° 289° (WNW) 16:11:59 437.325
GONETS M04 30 Jul 16:12:00 16:20:31 58° 282° (WNW) 16:29:08
Cosmos 2499 30 Jul 16:14:25 16:23:17 72° 279° (W) 16:31:54 435.465 / 435.565
SO-50 30 Jul 16:17:09 16:21:46 68° 55° (NE) 16:26:15 436.795
KKS-1 30 Jul 16:20:44 16:24:49 33° 98° (E) 16:28:51 437.445
ITAMSAT 1 30 Jul 16:35:00 16:37:34 14° 270° (W) 16:40:08 435.822/435.867
AO-7 30 Jul 16:38:25 16:46:15 44° 260° (W) 16:54:11 29.400- 29.500
HORYU 2 30 Jul 16:42:01 16:46:18 47° 72° (ENE) 16:50:39 437.375
STARS 30 Jul 16:49:10 16:53:12 33° 97° (E) 16:57:12 437.465
PHONESAT 2.4 30 Jul 16:54:58 16:58:01 68° 169° (SSE) 17:01:05 2401.200-2431.200
SWISSCUBE 30 Jul 16:55:48 16:58:07 14° 299° (WNW) 17:00:26 437.505
RS-15 30 Jul 16:59:09 17:10:44 50° 251° (WSW) 17:22:07 29.354- 29.394
CUTE-I 30 Jul 17:00:38 17:03:37 15° 60° (ENE) 17:06:37 437.470
BRITE-PL 30 Jul 17:05:53 17:08:48 19° 66° (ENE) 17:11:47 437.365/2234.400
NOAA 15 30 Jul 17:07:12 17:11:11 22° 64° (ENE) 17:15:10 137.62
CUBESAT XI-V 30 Jul 17:15:38 17:18:44 18° 92° (E) 17:21:50 437.345
MOZHAYETS 4 30 Jul 17:22:15 17:26:38 47° 288° (WNW) 17:31:00
PCSat 30 Jul 17:40:54 17:44:29 18° 105° (ESE) 17:48:04 145.827
GOMX 1 30 Jul 17:48:05 17:51:29 24° 67° (ENE) 17:55:03 467.674
KKS-1 30 Jul 17:57:38 18:01:11 23° 293° (WNW) 18:04:43 437.445
LilacSat-2 30 Jul 17:57:45 18:01:21 37° 72° (ENE) 18:04:58 437.200
SO-50 30 Jul 17:59:36 18:01:37 13° 253° (WSW) 18:03:36 436.795
NOAA 18 30 Jul 18:05:54 18:11:19 59° 71° (ENE) 18:16:47 137.9125
BEESAT 3 30 Jul 18:07:02 18:10:57 77° 302° (WNW) 18:14:54 437.485
HO-68 30 Jul 18:07:50 18:11:18 14° 52° (NE) 18:14:46 435.675
Cosmos 2499 30 Jul 18:13:22 18:17:56 15° 300° (WNW) 18:22:26 435.465 / 435.565
Cubesat XI-IV 30 Jul 18:15:14 18:20:34 69° 74° (ENE) 18:25:56 437.490
GONETS M04 30 Jul 18:17:57 18:19:34 11° 306° (NW) 18:21:10
HORYU 2 30 Jul 18:20:22 18:23:07 16° 268° (W) 18:25:52 437.375
BEESAT 2 30 Jul 18:20:50 18:24:46 78° 121° (ESE) 18:28:46 435.950
STARS 30 Jul 18:25:53 18:29:22 23° 294° (WNW) 18:32:50 437.465
PHONESAT 2.4 30 Jul 18:31:25 18:34:30 86° 186° (S) 18:37:34 2401.200-2431.200
CUTE-I 30 Jul 18:37:39 18:43:01 75° 257° (WSW) 18:48:24 437.470
BRITE-PL 30 Jul 18:43:21 18:47:06 33° 263° (W) 18:50:55 437.365/2234.400
CINEMA 3 30 Jul 18:44:06 18:46:34 14° 62° (ENE) 18:49:04 145.822/145.860
NOAA 15 30 Jul 18:45:36 18:50:38 47° 260° (W) 18:55:41 137.62
CUBESAT XI-V 30 Jul 18:51:56 18:56:20 44° 288° (WNW) 19:00:43 437.345
CANX-2 30 Jul 18:56:23 18:58:51 15° 65° (ENE) 19:01:19 2200.000
DOVE 4 30 Jul 18:58:21 19:02:38 63° 75° (ENE) 19:07:12 437.250
CUTE 1.7 + AOD 2 30 Jul 19:08:34 19:11:27 18° 66° (ENE) 19:14:19 437.475
AIST 2 30 Jul 19:18:18 19:20:25 14° 109° (ESE) 19:22:33 435.215
PCSat 30 Jul 19:21:59 19:27:20 61° 302° (WNW) 19:32:44 145.827
GOMX 1 30 Jul 19:25:53 19:29:29 27° 265° (W) 19:33:15 467.674
CUBEBUG 2 30 Jul 19:26:06 19:27:46 12° 61° (ENE) 19:29:27 437.445
LilacSat-2 30 Jul 19:33:32 19:35:48 15° 268° (W) 19:38:04 437.200
ISS 30 Jul 19:35:27 19:38:15 27° 134° (SE) 19:41:03 145.825
SEEDS 30 Jul 19:39:45 19:43:19 27° 69° (ENE) 19:46:52 437.485
COMPASS 1 30 Jul 19:44:38 19:47:48 21° 68° (ENE) 19:50:59 437.405
NOAA 18 30 Jul 19:48:35 19:52:21 19° 268° (W) 19:56:08 137.9125
Cosmos 2491 30 Jul 19:49:45 19:54:08 15° 76° (ENE) 19:58:32 435.465 / 435.565
HO-68 30 Jul 19:50:38 19:57:46 72° 71° (ENE) 20:04:57 435.675
Cubesat XI-IV 30 Jul 19:58:11 20:01:07 15° 270° (W) 20:04:04 437.490
O/OREOS (USA 219) 30 Jul 19:59:22 20:03:44 56° 108° (ESE) 20:08:07 437.305
BEESAT 2 30 Jul 20:01:19 20:03:08 13° 319° (NW) 20:04:56 435.950
PHONESAT 2.4 30 Jul 20:07:59 20:10:51 35° 201° (SSW) 20:13:42 2401.200-2431.200
AAUSAT CUBESAT 2 30 Jul 20:08:28 20:12:07 30° 70° (ENE) 20:15:45 437.432
STRAND 1 30 Jul 20:16:55 20:22:03 76° 103° (ESE) 20:27:07 437.568
YUBILEINY 30 Jul 20:17:22 20:25:55 50° 76° (ENE) 20:34:22 435.215
CINEMA 3 30 Jul 20:18:33 20:23:04 64° 260° (W) 20:27:52 145.822/145.860
FUNcube-1 30 Jul 20:19:00 20:21:57 17° 65° (ENE) 20:24:55 145.935
ZACube-1 30 Jul 20:21:48 20:25:04 20° 66° (ENE) 20:28:20 437.345
UWE-3 30 Jul 20:29:06 20:33:16 34° 70° (ENE) 20:37:29 435.000/436.395/437.385
CANX-2 30 Jul 20:30:10 20:34:19 48° 261° (W) 20:38:27 2200.000
DOVE 4 30 Jul 20:39:28 20:40:53 11° 272° (W) 20:42:20 437.250
CUTE 1.7 + AOD 2 30 Jul 20:42:58 20:46:58 40° 262° (W) 20:51:00 437.475
AIST 2 30 Jul 20:54:25 20:58:26 53° 306° (NW) 21:02:30 435.215
Oscar 11 30 Jul 20:54:43 20:58:48 41° 71° (ENE) 21:02:53 145.826/435.025
CUBEBUG 2 30 Jul 20:59:02 21:03:40 79° 258° (WSW) 21:08:26 437.445
HUMSAT D 30 Jul 21:03:51 21:05:12 11° 63° (ENE) 21:06:33 437.325/437.525
PCSat 30 Jul 21:09:54 21:11:53 12° 323° (NW) 21:13:52 145.827
M-CUBED/EXP-1 PRIME 30 Jul 21:10:10 21:13:23 25° 62° (ENE) 21:16:49 437.505
ISS 30 Jul 21:11:34 21:14:35 35° 331° (NNW) 21:17:38 145.825
SEEDS 30 Jul 21:15:29 21:18:57 24° 265° (W) 21:22:25 437.485
COMPASS 1 30 Jul 21:19:28 21:23:11 31° 264° (W) 21:26:54 437.405
Cosmos 2504 30 Jul 21:27:25 21:35:04 45° 74° (ENE) 21:42:11 435.465 / 435.565
AUBIESAT-1 30 Jul 21:32:18 21:35:54 35° 65° (ENE) 21:39:46 437.475
DELFI C3 30 Jul 21:32:42 21:36:29 45° 73° (ENE) 21:40:17 145.870
PRISM 30 Jul 21:37:15 21:41:20 71° 102° (ESE) 21:45:27 437.425
Cosmos 2491 30 Jul 21:40:48 21:49:30 82° 95° (E) 21:58:15 435.465 / 435.565
O/OREOS (USA 219) 30 Jul 21:40:49 21:43:30 16° 306° (NW) 21:46:12 437.305
HO-68 30 Jul 21:40:54 21:46:04 21° 268° (W) 21:51:16 435.675
AAUSAT CUBESAT 2 30 Jul 21:44:28 21:47:37 21° 266° (W) 21:50:46 437.432
AO-85 30 Jul 21:52:39 21:57:00 57° 54° (NE) 22:00:59 145.980
FUNcube-1 30 Jul 21:53:22 21:57:47 49° 261° (W) 22:02:14 145.935
ZACube-1 30 Jul 21:56:42 22:01:00 42° 262° (W) 22:05:24 437.345
STRAND 1 30 Jul 21:58:00 22:00:33 14° 300° (WNW) 22:03:06 437.568
TIGRISAT 30 Jul 22:04:54 22:06:24 11° 89° (E) 22:07:53 435.000
UWE-3 30 Jul 22:06:05 22:09:45 23° 266° (W) 22:13:30 435.000/436.395/437.385
YUBILEINY 30 Jul 22:14:39 22:22:23 36° 275° (W) 22:30:04 435.215
UNISAT 6 30 Jul 22:21:08 22:24:24 19° 92° (E) 22:27:36 437.425
Oscar 11 30 Jul 22:32:15 22:35:06 17° 268° (W) 22:37:57 145.826/435.025
CUBEBUG 1 30 Jul 22:34:17 22:36:09 13° 63° (ENE) 22:38:04 437.445
HUMSAT D 30 Jul 22:35:57 22:40:14 70° 259° (W) 22:44:32 437.325/437.525
ESTCUBE 1 30 Jul 22:42:25 22:46:01 24° 67° (ENE) 22:49:37 437.505/2401.250
VELOX 1 30 Jul 22:43:16 22:45:36 14° 63° (ENE) 22:47:57 145.980
M-CUBED/EXP-1 PRIME 30 Jul 22:44:30 22:47:48 27° 260° (W) 22:51:20 437.505
ISS 30 Jul 22:50:02 22:51:45 13° 351° (N) 22:53:28 145.825
ANTELSAT 30 Jul 22:58:34 23:03:01 47° 99° (E) 23:07:20 437.575/2403.000
AUBIESAT-1 30 Jul 23:07:43 23:10:31 19° 263° (W) 23:13:27 437.475
DELFI C3 30 Jul 23:09:42 23:11:33 13° 268° (W) 23:13:27 145.870
DX 1 30 Jul 23:12:46 23:16:01 21° 66° (ENE) 23:19:18 434.975-435.025
PRISM 30 Jul 23:15:40 23:16:03 10° 298° (WNW) 23:16:28 437.425
UKube-1 30 Jul 23:18:51 23:21:56 19° 66° (ENE) 23:25:01 .
Cosmos 2504 30 Jul 23:21:13 23:28:10 34° 275° (W) 23:34:43 435.465 / 435.565
50 SAT 30 Jul 23:23:37 23:26:57 34° 72° (ENE) 23:30:17 437.505
AIST 1 30 Jul 23:24:29 23:27:35 19° 72° (ENE) 23:30:40
AISAT 30 Jul 23:26:27 23:30:35 42° 71° (ENE) 23:34:45 437.250
QB50P2 30 Jul 23:33:16 23:36:10 18° 93° (E) 23:39:03 145.880/145.840
AO-85 30 Jul 23:34:59 23:36:47 13° 253° (WSW) 23:38:33 145.980
POLYITAN 1 30 Jul 23:35:52 23:38:49 18° 93° (E) 23:41:45 437.675
TIGRISAT 30 Jul 23:38:58 23:43:34 67° 285° (WNW) 23:48:01 435.000
Cosmos 2491 30 Jul 23:41:13 23:47:25 21° 296° (WNW) 23:53:40 435.465 / 435.565
SPROUT 30 Jul 23:43:28 23:47:07 28° 69° (ENE) 23:50:47 437.525
UNISAT 6 30 Jul 23:56:58 00:01:17 40° 289° (WNW) 00:05:29 437.425
CUBEBUG 1 31 Jul 00:07:40 00:11:55 61° 260° (W) 00:16:13 437.445
NANOSAT C BR1 31 Jul 00:14:11 00:18:19 45° 99° (E) 00:22:23 145.865
BUGSAT 1 31 Jul 00:14:41 00:17:42 19° 93° (E) 00:20:42 437.445
DUCHIFAT 1 31 Jul 00:16:26 00:20:31 44° 99° (E) 00:24:35 145.980
VELOX 1 31 Jul 00:17:18 00:21:35 55° 259° (W) 00:25:56 145.980
ESTCUBE 1 31 Jul 00:18:40 00:22:40 31° 263° (W) 00:26:41 437.505/2401.250
TISAT 1 31 Jul 00:24:34 00:27:33 19° 66° (ENE) 00:30:32 437.305
ISS 31 Jul 00:27:23 00:29:14 14° 11° (NNE) 00:31:06 145.825
GONETS M04 31 Jul 00:28:16 00:32:31 14° 58° (ENE) 00:36:44
ANTELSAT 31 Jul 00:36:18 00:39:19 18° 296° (WNW) 00:42:17 437.575/2403.000
JAS-2 31 Jul 00:38:19 00:43:04 29° 97° (E) 00:48:11 435.910
QB50P1 31 Jul 00:38:57 00:43:16 88° 279° (W) 00:47:32 145.935-145.965
POPSAT HIP 1 31 Jul 00:45:50 00:50:09 75° 284° (WNW) 00:54:24 437.405
DX 1 31 Jul 00:48:04 00:52:00 34° 262° (W) 00:55:58 434.975-435.025
UKube-1 31 Jul 00:53:44 00:57:43 37° 262° (W) 01:01:44 .
50 SAT 31 Jul 00:58:40 01:00:41 14° 267° (W) 01:02:43 437.505
AIST 1 31 Jul 01:01:17 01:05:17 36° 269° (W) 01:09:16
AISAT 31 Jul 01:04:22 01:07:15 17° 267° (W) 01:10:08 437.250
QB50P2 31 Jul 01:08:07 01:12:07 39° 289° (WNW) 01:16:05 145.880/145.840
BEESAT 31 Jul 01:08:26 01:10:32 13° 61° (ENE) 01:12:40 436.000
POLYITAN 1 31 Jul 01:10:46 01:14:45 38° 289° (WNW) 01:18:42 437.675
SPROUT 31 Jul 01:19:30 01:23:01 24° 265° (W) 01:26:33 437.525
Oscar 19 31 Jul 01:23:05 01:26:42 19° 93° (E) 01:30:17 437.125/150
ITUPSAT 1 31 Jul 01:32:35 01:36:13 22° 65° (ENE) 01:39:52 437.325
Gurwin Techsat 1B 31 Jul 01:39:02 01:40:36 11° 89° (E) 01:42:11 435.225
BUGSAT 1 31 Jul 01:49:15 01:53:10 36° 289° (WNW) 01:57:05 437.445
NANOSAT C BR1 31 Jul 01:51:00 01:53:40 16° 295° (WNW) 01:56:18 145.865
DUCHIFAT 1 31 Jul 01:53:11 01:55:51 16° 295° (WNW) 01:58:31 145.980
TISAT 1 31 Jul 01:59:03 02:02:55 36° 262° (W) 02:06:51 437.305
ISS 31 Jul 02:03:12 02:06:20 42° 30° (NNE) 02:09:27 145.825
Cosmos 2499 31 Jul 02:07:21 02:14:30 39° 73° (ENE) 02:21:12 435.465 / 435.565
SWISSCUBE 31 Jul 02:22:02 02:26:48 76° 75° (ENE) 02:31:36 437.505
GONETS M04 31 Jul 02:22:17 02:31:07 71° 80° (E) 02:39:56
JAS-2 31 Jul 02:23:18 02:28:11 36° 291° (WNW) 02:33:28 435.910
BEESAT 3 31 Jul 02:24:30 02:28:24 53° 54° (NE) 02:32:16 437.485
PCSat 31 Jul 02:27:54 02:31:28 17° 43° (NE) 02:35:00 145.827
BEESAT 2 31 Jul 02:39:11 02:42:59 40° 53° (NE) 02:46:46 435.950
BEESAT 31 Jul 02:42:55 02:47:42 74° 257° (WSW) 02:52:29 436.000
MOZHAYETS 4 31 Jul 02:48:19 02:51:09 16° 64° (ENE) 02:54:00
AO-7 31 Jul 02:51:52 02:53:43 11° 86° (E) 02:55:32 29.400- 29.500
CUSAT 1 31 Jul 02:58:07 03:01:13 24° 97° (E) 03:03:49 437.405
Oscar 19 31 Jul 03:01:16 03:06:17 52° 289° (WNW) 03:11:18 437.125/150
ITAMSAT 1 31 Jul 03:06:12 03:10:27 25° 95° (E) 03:14:40 435.822/435.867
ITUPSAT 1 31 Jul 03:09:16 03:13:46 40° 261° (W) 03:18:20 437.325
Gurwin Techsat 1B 31 Jul 03:15:51 03:21:12 85° 285° (WNW) 03:26:30 435.225
KKS-1 31 Jul 03:18:31 03:22:22 30° 69° (ENE) 03:26:15 437.445
AIST 2 31 Jul 03:39:16 03:40:55 12° 40° (NE) 03:42:34 435.215
ISS 31 Jul 03:40:01 03:42:35 21° 227° (SW) 03:45:08 145.825
STARS 31 Jul 03:45:33 03:49:19 29° 69° (ENE) 03:53:07 437.465
DANDE 31 Jul 03:59:04 04:04:09 55° 98° (E) 04:07:57 436.750
Cosmos 2499 31 Jul 04:00:38 04:07:30 37° 274° (W) 04:13:57 435.465 / 435.565
BEESAT 3 31 Jul 04:03:48 04:05:37 13° 251° (WSW) 04:07:27 437.485
SWISSCUBE 31 Jul 04:03:56 04:05:07 11° 271° (W) 04:06:19 437.505
PCSat 31 Jul 04:10:06 04:15:33 83° 243° (WSW) 04:20:57 145.827
BEESAT 2 31 Jul 04:17:51 04:20:30 17° 249° (WSW) 04:23:09 435.950
CUBESAT XI-V 31 Jul 04:19:02 04:22:04 18° 65° (ENE) 04:25:06 437.345
GONETS M04 31 Jul 04:20:29 04:27:03 24° 279° (W) 04:33:38
MOZHAYETS 4 31 Jul 04:23:22 04:27:53 52° 260° (W) 04:32:25
O/OREOS (USA 219) 31 Jul 04:32:15 04:34:02 12° 51° (NE) 04:35:49 437.305
AO-7 31 Jul 04:39:37 04:47:57 67° 105° (ESE) 04:56:11 29.400- 29.500
CUSAT 1 31 Jul 04:41:36 04:43:06 12° 284° (WNW) 04:44:29 437.405
ITAMSAT 1 31 Jul 04:45:13 04:50:00 39° 291° (WNW) 04:54:46 435.822/435.867
KKS-1 31 Jul 04:55:16 04:58:54 25° 265° (W) 05:02:36 437.445
Gurwin Techsat 1B 31 Jul 04:58:34 05:00:17 12° 302° (WNW) 05:02:01 435.225
RS-15 31 Jul 05:10:52 05:20:19 32° 103° (ESE) 05:30:09 29.354- 29.394
AIST 2 31 Jul 05:15:50 05:20:03 87° 64° (ENE) 05:24:13 435.215
STARS 31 Jul 05:21:59 05:25:38 25° 264° (W) 05:29:19 437.465
DANDE 31 Jul 05:45:16 05:46:48 11° 286° (WNW) 05:48:13 436.750
CUBESAT XI-V 31 Jul 05:54:38 05:59:04 47° 261° (W) 06:03:32 437.345
STRAND 1 31 Jul 05:56:34 05:59:01 14° 60° (ENE) 06:01:27 437.568
HORYU 2 31 Jul 06:09:25 06:13:54 82° 286° (WNW) 06:18:21 437.375
O/OREOS (USA 219) 31 Jul 06:09:28 06:14:01 80° 250° (WSW) 06:18:35 437.305
NOAA 18 31 Jul 06:28:54 06:33:24 25° 95° (E) 06:37:51 137.9125
SO-50 31 Jul 06:31:24 06:35:19 24° 112° (ESE) 06:39:14 436.795
AO-7 31 Jul 06:33:14 06:40:05 30° 304° (NW) 06:46:54 29.400- 29.500
Cubesat XI-IV 31 Jul 06:33:20 06:37:52 28° 95° (E) 06:42:23 437.490
BRITE-PL 31 Jul 06:46:18 06:51:18 71° 101° (ESE) 06:56:40 437.365/2234.400
CUTE-I 31 Jul 06:55:10 07:00:16 45° 99° (E) 07:05:20 437.470
DOVE 4 31 Jul 06:57:37 07:01:35 21° 92° (E) 07:05:33 437.250
NOAA 15 31 Jul 07:00:40 07:05:55 67° 102° (ESE) 07:11:10 137.62
LilacSat-2 31 Jul 07:05:19 07:09:09 60° 100° (E) 07:12:55 437.200
RS-15 31 Jul 07:20:09 07:31:38 74° 305° (NW) 07:43:50 29.354- 29.394
HO-68 31 Jul 07:22:01 07:24:36 12° 87° (E) 07:27:10 435.675
GOMX 1 31 Jul 07:25:55 07:31:08 81° 102° (ESE) 07:36:34 467.674
STRAND 1 31 Jul 07:32:21 07:37:30 79° 257° (WSW) 07:42:41 437.568
Cosmos 2491 31 Jul 07:51:46 07:59:55 40° 73° (ENE) 08:08:02 435.465 / 435.565
NOAA 18 31 Jul 08:08:58 08:14:11 44° 292° (WNW) 08:19:23 137.9125
SO-50 31 Jul 08:10:57 08:15:35 42° 309° (NW) 08:20:12 436.795
Cubesat XI-IV 31 Jul 08:13:06 08:17:59 37° 292° (WNW) 08:22:49 437.490
CINEMA 3 31 Jul 08:13:39 08:18:13 34° 96° (E) 08:22:40 145.822/145.860
CANX-2 31 Jul 08:15:43 08:19:20 28° 96° (E) 08:22:57 2200.000
PRISM 31 Jul 08:26:12 08:30:05 47° 73° (ENE) 08:34:00 437.425
BRITE-PL 31 Jul 08:26:32 08:29:18 15° 296° (WNW) 08:32:09 437.365/2234.400
CUTE 1.7 + AOD 2 31 Jul 08:28:05 08:31:55 33° 97° (E) 08:35:43 437.475
DOVE 4 31 Jul 08:34:25 08:39:26 48° 288° (WNW) 08:44:31 437.250
CUTE-I 31 Jul 08:35:50 08:40:01 24° 296° (WNW) 08:44:10 437.470
NOAA 15 31 Jul 08:41:56 08:45:08 17° 299° (WNW) 08:48:19 137.62
LilacSat-2 31 Jul 08:42:20 08:42:55 10° 297° (WNW) 08:43:29 437.200
CUBEBUG 2 31 Jul 08:51:03 08:54:47 23° 93° (E) 08:58:25 437.445
SEEDS 31 Jul 08:58:43 09:02:49 53° 100° (E) 09:06:52 437.485
COMPASS 1 31 Jul 09:02:07 09:06:00 39° 98° (E) 09:09:52 437.405
TIGRISAT 31 Jul 09:03:43 09:05:14 11° 61° (ENE) 09:06:45 435.000
GOMX 1 31 Jul 09:06:00 09:08:35 14° 298° (WNW) 09:11:13 467.674
HO-68 31 Jul 09:06:08 09:13:23 77° 105° (ESE) 09:20:34 435.675
YUBILEINY 31 Jul 09:17:27 09:25:58 58° 91° (E) 09:34:34 435.215
UNISAT 6 31 Jul 09:19:49 09:22:56 18° 64° (ENE) 09:26:04 437.425
AAUSAT CUBESAT 2 31 Jul 09:25:44 09:29:49 59° 100° (E) 09:33:52 437.432
RS-15 31 Jul 09:36:52 09:46:42 29° 334° (NNW) 09:56:54 29.354- 29.394
FUNcube-1 31 Jul 09:42:02 09:46:01 32° 96° (E) 09:49:54 145.935
ZACube-1 31 Jul 09:45:27 09:49:37 37° 97° (E) 09:53:38 437.345
Cosmos 2491 31 Jul 09:48:39 09:56:45 44° 272° (W) 10:04:53 435.465 / 435.565
CINEMA 3 31 Jul 09:50:57 09:55:11 28° 292° (WNW) 09:59:21 145.822/145.860
CANX-2 31 Jul 09:51:42 09:55:04 24° 292° (WNW) 09:58:26 2200.000
UWE-3 31 Jul 09:55:02 09:59:38 77° 102° (ESE) 10:04:03 435.000/436.395/437.385
ANTELSAT 31 Jul 09:56:36 10:00:57 41° 71° (ENE) 10:05:22 437.575/2403.000
PRISM 31 Jul 10:03:43 10:05:39 13° 268° (W) 10:07:36 437.425
Cosmos 2504 31 Jul 10:03:54 10:11:58 41° 87° (E) 10:19:56 435.465 / 435.565
CUTE 1.7 + AOD 2 31 Jul 10:04:26 10:07:32 20° 293° (WNW) 10:10:36 437.475
Oscar 11 31 Jul 10:17:52 10:22:12 90° 60° (ENE) 10:26:30 145.826/435.025
HUMSAT D 31 Jul 10:20:41 10:23:37 19° 93° (E) 10:26:32 437.325/437.525
M-CUBED/EXP-1 PRIME 31 Jul 10:23:31 10:27:14 23° 98° (E) 10:30:53 437.505
QB50P2 31 Jul 10:26:30 10:28:40 14° 63° (ENE) 10:30:50 145.880/145.840
CUBEBUG 2 31 Jul 10:27:14 10:31:27 34° 290° (WNW) 10:35:33 437.445
POLYITAN 1 31 Jul 10:29:02 10:31:17 14° 64° (ENE) 10:33:33 437.675
SEEDS 31 Jul 10:36:04 10:38:03 13° 296° (WNW) 10:40:02 437.485
TIGRISAT 31 Jul 10:36:33 10:41:12 81° 258° (WSW) 10:45:57 435.000
COMPASS 1 31 Jul 10:38:35 10:41:15 17° 294° (WNW) 10:43:54 437.405
DELFI C3 31 Jul 10:45:00 10:48:58 80° 102° (ESE) 10:52:54 145.870
AUBIESAT-1 31 Jul 10:45:17 10:49:25 31° 101° (E) 10:53:26 437.475
JAS-2 31 Jul 10:54:16 10:56:12 12° 60° (ENE) 10:58:06 435.910
UNISAT 6 31 Jul 10:54:43 10:59:14 49° 261° (W) 11:03:49 437.425
HO-68 31 Jul 10:55:10 11:00:20 22° 303° (WNW) 11:05:29 435.675
AAUSAT CUBESAT 2 31 Jul 11:03:16 11:04:47 12° 297° (WNW) 11:06:17 437.432
BUGSAT 1 31 Jul 11:05:19 11:07:13 13° 63° (ENE) 11:09:08 437.445
NANOSAT C BR1 31 Jul 11:06:00 11:09:46 32° 70° (ENE) 11:13:33 145.865
DUCHIFAT 1 31 Jul 11:07:59 11:11:43 31° 70° (ENE) 11:15:29 145.980
YUBILEINY 31 Jul 11:15:39 11:23:12 31° 291° (WNW) 11:30:52 435.215
FUNcube-1 31 Jul 11:18:36 11:22:05 23° 293° (WNW) 11:25:29 145.935
ZACube-1 31 Jul 11:22:22 11:25:36 20° 294° (WNW) 11:28:47 437.345
QB50P1 31 Jul 11:30:40 11:34:52 65° 75° (ENE) 11:39:07 145.935-145.965
UWE-3 31 Jul 11:34:00 11:35:23 11° 299° (WNW) 11:36:45 435.000/436.395/437.385
ANTELSAT 31 Jul 11:34:22 11:37:48 20° 267° (W) 11:41:16 437.575/2403.000
POPSAT HIP 1 31 Jul 11:37:33 11:41:47 76° 74° (ENE) 11:46:05 437.405
HUMSAT D 31 Jul 11:55:34 11:59:21 34° 289° (WNW) 12:03:04 437.325/437.525
RS-15 31 Jul 11:55:54 12:04:56 23° 10° (N) 12:14:04 29.354- 29.394
AIST 1 31 Jul 11:56:14 11:56:55 10° 83° (E) 11:57:36
Cosmos 2504 31 Jul 11:56:47 12:05:12 46° 285° (WNW) 12:13:33 435.465 / 435.565
CUBEBUG 1 31 Jul 11:56:51 12:00:29 24° 95° (E) 12:04:07 437.445
M-CUBED/EXP-1 PRIME 31 Jul 11:57:25 12:01:49 40° 294° (WNW) 12:06:09 437.505
QB50P2 31 Jul 11:59:49 12:03:59 55° 260° (W) 12:08:13 145.880/145.840
POLYITAN 1 31 Jul 12:02:27 12:06:37 53° 260° (W) 12:10:51 437.675
AO-85 31 Jul 12:06:15 12:10:34 25° 111° (ESE) 12:14:46 145.980
VELOX 1 31 Jul 12:07:53 12:11:42 27° 96° (E) 12:15:30 145.980
ESTCUBE 1 31 Jul 12:10:46 12:15:10 53° 100° (E) 12:19:33 437.505/2401.250
